This is the latest recevied weather packets stored in our database for station/object W3BRL. If no packets are shown the sender has not sent any weather packets the latest 10 day(s).
| Time | Temp. | Humidity | Pressure | Rain* | Wind** | Luminosity | Snow |
|---|---|---|---|---|---|---|---|
| 1777251629 | 11.11° C | 68% | 1018.8 hPa | 0 mm | - | 0 W/m² | - |
| 1777251326 | 11.11° C | 68% | 1019 hPa | 0 mm | - | 0 W/m² | - |
| 1777251021 | 11.11° C | 67% | 1018.8 hPa | 0 mm | - | 0 W/m² | - |
| 1777250718 | 11.67° C | 67% | 1018.6 hPa | 0 mm | - | 0 W/m² | - |
| 1777250415 | 11.67° C | 66% | 1018.6 hPa | 0 mm | - | 0 W/m² | - |
| 1777250115 | 11.67° C | 66% | 1018.4 hPa | 0 mm | - | 0 W/m² | - |
| 1777249811 | 11.67° C | 66% | 1018.2 hPa | 0 mm | - | 0 W/m² | - |
| 1777249508 | 11.67° C | 65% | 1018.2 hPa | 0 mm | - | 0 W/m² | - |
| 1777249205 | 12.22° C | 65% | 1018.3 hPa | 0 mm | - | 1 W/m² | - |
| 1777248901 | 12.22° C | 64% | 1018.2 hPa | 0 mm | - | 2 W/m² | - |
| 1777248598 | 12.22° C | 64% | 1018.1 hPa | 0 mm | - | 4 W/m² | - |
| 1777248295 | 12.78° C | 63% | 1018 hPa | 0 mm | - | 6 W/m² | - |
| 1777247990 | 12.78° C | 62% | 1018 hPa | 0 mm | - | 10 W/m² | - |
| 1777247690 | 12.78° C | 61% | 1017.8 hPa | 0 mm | - | 14 W/m² | - |
| 1777247388 | 13.33° C | 60% | 1017.8 hPa | 0 mm | - | 18 W/m² | - |
| 1777247085 | 13.33° C | 60% | 1017.7 hPa | 0 mm | - | 23 W/m² | - |
| 1777246782 | 13.33° C | 60% | 1017.6 hPa | 0 mm | - | 28 W/m² | - |
| 1777246478 | 13.33° C | 59% | 1017.6 hPa | 0 mm | - | 33 W/m² | - |
| 1777246175 | 13.89° C | 59% | 1017.6 hPa | 0 mm | - | 40 W/m² | - |
| 1777245873 | 13.89° C | 59% | 1017.6 hPa | 0 mm | - | 50 W/m² | - |
| 1777245571 | 13.89° C | 58% | 1017.5 hPa | 0 mm | - | 57 W/m² | - |
| 1777245267 | 13.89° C | 58% | 1017.5 hPa | 0 mm | - | 62 W/m² | - |
| 1777244962 | 14.44° C | 57% | 1017.3 hPa | 0 mm | - | 64 W/m² | - |
| 1777244658 | 14.44° C | 57% | 1017.6 hPa | 0 mm | - | 48 W/m² | - |
| 1777244354 | 14.44° C | 56% | 1017.5 hPa | 0 mm | - | 82 W/m² | - |
* Rain latest hour (hover to see other rain measurements)
** Current wind speed in m/s (hover to see current wind gust speed)